www.pogodaiklimat.ru

Погода и климат >> Архив погоды >> Аргентина >> La Rioja


ПОГОДА в La Rioja

  • Прогноз погоды в La Rioja
  • Монитор погоды в La Rioja
  • Климат города

АРХИВ ПОГОДЫ в La Rioja

Время (UTC), дата Ветер
(напр.,м/с)
 
Видим.   Явления Облачность Т
(С)
Тd
(С)
f
(%)
Тe
(С)
Тes
(С)
Комфортность P
(гПа)
Po
(гПа)
Тmin
(С)
Tmax
(С)
R
(мм)
R24
(мм)
S
(см)
03 9.07 ЮЗ 2 20 км ясно +4.7 +3.3 91 +2 +2 1034.9 982.5
06 9.07 З 1 20 км ясно +2.3 +1.5 94 0 0 1034.2 982.3
09 9.07 З 2 20 км 3/3 1500 м
[Sc]
+3.1 +2.4 95 0 0 1033.2 981.5
12 9.07 З 2 20 км 3/0
[Ci fib]
+0.5 +0.2 98 -3 -3 1035.2 982.5 +6.9
15 9.07 Ю 2 20 км ясно +9.0 +3.2 67 +8 +16 1034.3 982.2
18 9.07 штиль 0 20 км ясно +14.0 +5.4 56 +14 +23 1030.4 978.7
21 9.07 штиль 0 20 км ясно +13.0 +7.5 69 +13 +13 1028.9 977.3
00 10.07 З 3 20 км ясно +7.2 +4.1 81 +4 +4 1029.9 977.5 +15.2
03 10.07 З 1 20 км ясно +5.3 +3.7 89 +4 +4 1029.0 977.2
06 10.07 ЮЗ 1 20 км ясно +2.8 +1.8 93 +1 +1 1027.5 976.0
09 10.07 штиль 0 20 км ясно +3.6 +2.4 92 +2 +2 1025.3 973.9
12 10.07 З 1 20 км 3/0
[Ci]
+0.6 +0.6 100 -2 -1 1025.9 973.7 +7.2
15 10.07 Ю 2 18 км дым 3/0
[Ci]
+9.2 +4.4 72 +8 +14 1024.4 972.9
18 10.07 Ю 3 20 км ясно +13.8 +5.6 58 +13 +19 1020.8 969.6
21 10.07 штиль 0 20 км 4/0
[Ci]
+14.8 +6.7 58 +15 +15 1018.6 967.7
00 11.07 З 2 20 км 3/0
[Ci]
+7.6 +4.0 78 +6 +6 1019.2 967.3 +15.0
03 11.07 Ю 2 20 км ясно +6.3 +3.6 83 +4 +4 1018.2 967.1
06 11.07 ЮЗ 2 20 км ясно +6.2 +2.9 79 +4 +4 1016.4 965.8
09 11.07 ЮЗ 2 20 км ясно +5.3 +3.2 86 +3 +3 1015.7 965.1
12 11.07 ЮЗ 1 20 км 5/0
[Cs]
+4.1 +2.9 92 +3 +3 1018.6 967.1 +7.7
15 11.07 Ю 3 20 км 3/0
[Cs]
+9.8 +3.6 65 +8 +13 1018.8 968.8
18 11.07 ЮЗ 2 15 км 3/0
[Cs]
+14.2 +4.6 52 +14 +21 1017.8 967.1
21 11.07 Ю 2 15 км мгла ясно +14.6 +6.2 57 +15 +15 1017.2 966.5
00 12.07 З 2 15 км мгла ясно +7.4 +3.6 77 +5 +5 1019.9 968.3 +15.5
03 12.07 З 1 15 км ясно +5.5 +3.7 88 +4 +4 1020.6 969.3
06 12.07 З 2 20 км ясно +3.5 +2.0 90 0 0 1020.1 969.0
09 12.07 ЮЗ 1 20 км ясно +1.4 +0.4 93 +1 +1 1018.3 967.2
12 12.07 СЗ 2 20 км 3/0
[Ci fib]
+3.0 +1.8 92 -0 0 1019.7 968.0 +7.5
15 12.07 СВ 2 20 км ясно +12.6 +3.5 54 +12 +20 1017.6 966.7
18 12.07 Ю 3 20 км 4/0
[Ci]
+19.2 +5.9 42 +20 +26 1014.3 964.0
21 12.07 ЮВ 2 20 км 4/0
[Ci]
+19.6 +6.5 42 +21 +21 комфорт 1012.9 962.5
00 13.07 З 2 20 км ясно +9.6 +5.3 75 +8 +8 1016.0 964.7 +20.0
03 13.07 З 2 20 км ясно +7.8 +5.4 85 +6 +6 1017.1 966.5
06 13.07 З 2 20 км ясно +5.3 +3.4 88 +3 +3 1015.8 965.6
09 13.07 З 2 20 км ясно +4.5 +2.6 87 +2 +2 1014.5 964.3
12 13.07 З 1 20 км ясно +4.0 +2.6 91 +2 +3 1016.4 965.2 +3.5 +9.6
15 13.07 В 3 15 км мгла ясно +16.6 +5.8 49 +17 +23 1015.2 965.0
18 13.07 Ю 2 15 км мгла 3/0
[Ci]
+20.6 +7.4 42 +22 +29 комфорт 1011.7 961.8
21 13.07 штиль 0 15 км мгла 5/0
[Ci]
+19.7 +10.2 54 +21 +21 комфорт 1010.1 960.1
00 14.07 З 2 15 км мгла 3/0
[Ci]
+11.0 +5.6 69 +10 +10 1011.7 960.8 +4.0 +22.3
03 14.07 З 2 20 км ясно +8.2 +4.9 80 +6 +6 1011.1 960.8
06 14.07 З 2 20 км ясно +7.4 +4.3 81 +5 +5 1009.2 959.6
09 14.07 З 1 20 км ясно +6.6 +3.9 83 +6 +6 1008.0 959.0
12 14.07 штиль 0 20 км ясно +10.8 +2.7 57 +11 +11 1009.2 958.5 +4.7 +11.8
15 14.07 штиль 0 20 км ясно +17.2 +6.7 50 +17 +27 1007.6 957.8
18 14.07 В 3 18 км мгла ясно +23.2 +8.2 38 +24 +31 комфорт 1003.2 954.1
21 14.07 В 2 15 км дым ясно +23.6 +10.2 43 +25 +25 комфорт 1002.2 953.1
00 15.07 З 2 15 км дым ясно +13.8 +7.5 66 +13 +13 1005.2 955.0 +4.6 +24.8
03 15.07 З 2 20 км ясно +10.6 +3.7 62 +9 +9 1007.2 957.7
06 15.07 З 2 20 км ясно +9.5 +6.2 80 +8 +8 1007.4 958.3
09 15.07 Ю 1 20 км ясно +8.8 +5.8 81 +8 +8 1007.5 958.3
12 15.07 З 2 20 км ясно +7.8 +4.5 80 +6 +6 1012.3 962.0 +6.1 +13.9
15 15.07 Ю 2 20 км ясно +18.7 +7.0 46 +20 +27 1014.3 964.5
18 15.07 Ю 2 20 км ясно +22.0 +8.9 43 +23 +31 комфорт 1012.5 963.0
21 15.07 В 1 20 км 1/1 1500 м
[Sc]
+22.2 +10.1 46 +24 +24 комфорт 1012.1 962.6
00 16.07 ЮЗ 2 15 км дым ясно +13.8 +8.0 68 +14 +14 1016.3 965.8 +7.8 +23.0

 

Местоположение метеостанции La Rioja (Аргентина): широта -29.38 долгота -66.81 высота над уровнем моря 429 м.

В архиве по умолчанию представлена погода в La Rioja за последнюю неделю. Архивные данные за месяц целиком и за предыдущие месяцы, начиная с января 2011 года, Вы можете получить, выбрав интересующий диапазон дат из раскрывающегося списка и нажав кнопку "Ввод!".


*Определитесь, кто Вы:
робот инопланетянин человек

Внимание! Время в таблицах - всемирное. Для получения местного времени необходимо прибавить поправку, которая в La Rioja равна -3 ч.

Смотрите также архив погоды в соседних городах и на ближайших метеорологических станциях:

Погода в Chamical (Аргентина) (120 км)
Погода в San Fernando del Valle de Catamarca (Аргентина) (134 км)
Погода в San Juan (Аргентина) (272 км)
Погода в Santiago del Estero (Аргентина) (304 км)
Погода в Villa de Maria del Rio Seco (Аргентина) (308 км)
Погода в Villa Dolores (Аргентина) (328 км)
Погода в San Miguel de Tucuman (Аргентина) (328 км)
Погода в Cordoba (Аргентина) (329 км)
Погода в Pilar (Аргентина) (378 км)
Погода в Mendoza (Аргентина) (427 км)

Пояснения к столбцам:

Ветер - указаны скорость ветра в м/с - средняя за 10 мин, порывы в срок и между сроками (в фигурных скобках) и направление, откуда дует ветер: С - северный, СВ - северо-восточный, В - восточный, ЮВ - юго-восточный, Ю - южный, ЮЗ - юго-западный, З - западный, СЗ - северо-западный.
Видимость - горизонтальная дальность видимости в метрах или километрах. При видимости от 1 до 10 км при отсутствии осадков обычно наблюдается дымка, при ухудшении видимости до 1 км и менее - туман. В сухую погоду видимость может ухудшаться дымом, пылью или мглою.
Явления - указаны атмосферные явления, наблюдавшиеся в срок или в последний час перед сроком; фигурными скобками обозначены явления, наблюдавшиеся между сроками (за 1-3 часа до срока); квадратными скобками обозначены град или гололедные отложения с указанием их диаметра в мм.
Облачность - указаны через наклонную черту общая и нижняя облачность в баллах и высота нижней границы облаков в метрах; квадратными скобками обозначены формы облаков: Ci - перистые, Cs - перисто-слоистые, Cc - перисто-кучевые, Ac - высококучевые, As - высокослоистые, Sc - слоисто-кучевые, Ns - слоисто-дождевые, Cu - кучевые, Cb - кучево-дождевые. Подробнее классификацию облаков см. в Атласе облаков (PDF).
T - Температура воздуха - температура, измеренная на высоте 2 м над землей.
Td - Температура точки росы - температура, при понижении до которой содержащийся в воздухе водяной пар достигнет насыщения.
f - Относительная влажность воздуха - влажноcть воздуха, измеренная на высоте 2 м над землей.
Te - Эффективная температура - температура, которую ощущает одетый по сезону человек в тени. Характеристика душности погоды. При расчете учитывается влияние влажности воздуха и скорости ветра на теплоощущения человека.
Tes - Эффективная температура на солнце - температура, которую ощущает человек, с поправкой на солнечный нагрев. Характеристика знойности погоды. Зависит от высоты солнца над горизонтом, облачности и скорости ветра. Ночью, в пасмурную погоду, а также при ветре 12 м/с и более поправка равна нулю.
P - Атмосферное давление - приведенное к уровню моря атмосферное давление.
Po - Атмосферное давление - измеренное на уровне метеостанции атмосферное давление.
Tmin - Минимальная температура - минимум температуры воздуха на высоте 2 м над землей.
Tmax - Максимальная температура - максимум температуры воздуха на высоте 2 м над землей.
R - Количество осадков - Количество выпавших осадков за период времени, мм. При наведении курсора мыши на число - период времени, за который выпало указанное количество осадков.
R24 - Количество осадков - Количество выпавших осадков за 24 часа, мм.
S - Снежный покров - Высота снежного покрова, см. При наведении курсора мыши на число - состояние снежного покрова и степень покрытия местности в баллах.